Regional Weather Roundup
Issued by NWS

Home | Current Version | Previous Version | Graphics & Text | Print | Product List | Glossary Off
Versions: 1 2 3 4 5 6 7 8 9 10 11 12 13 14 15 16 17 18 19 20 21 22 23 24 25 26 27 28 29 30 31 32 33 34 35 36 37 38 39 40 41 42 43 44 45 46 47 48 49 50

000
ASUS43 KTOP 232259
RWRKS

WEATHER ROUNDUP FOR KANSAS
NATIONAL WEATHER SERVICE GOODLAND KS
600 PM CDT SUN JUL 23 2017

NOTE:  "FAIR" INDICATES FEW OR NO CLOUDS BELOW 12,000 FEET WITH NO
SIGNIFICANT WEATHER AND/OR OBSTRUCTIONS TO VISIBILITY.

KSZ001>006-013>018-027>032-041>047-240000-
NORTHWEST KANSAS

CITY           SKY/WX    TMP DP  RH WIND       PRES   REMARKS
GOODLAND       SUNNY     90  53  28 SE12G17   30.06F
HAYS             N/A     95  58  28 E9        29.95F
HILL CITY      SUNNY     95  58  28 VRB7      29.98F
RUSSELL        SUNNY     96  57  27 E8        29.93F HX  95
$$

KSZ061>065-074>080-084>089-240000-
SOUTHWEST KANSAS

CITY           SKY/WX    TMP DP  RH WIND       PRES   REMARKS
DODGE CITY     SUNNY     93  62  35 SE3       29.98F
ELKHART          N/A     88  58  36 E12         N/A
GARDEN CITY    SUNNY     91  59  33 E9        30.00F
LIBERAL        SUNNY     91  62  37 E14       30.00F
$$

KSZ066>073-081>083-090>101-240000-
SOUTHEAST KANSAS

CITY           SKY/WX    TMP DP  RH WIND       PRES   REMARKS
CHANUTE        MOSUNNY   93  69  45 NE7       29.89F HX  98
COFFEYVILLE    SUNNY     93  69  45 N7        29.87F HX  98
HUTCHINSON     CLOUDY    92  66  42 VRB5      29.91F
MEDICINE LODGE   N/A     95  63  34 NW7       29.88F HX  96
PARSONS        SUNNY     90  70  51 MISG      29.89F HX  95
WICHITA INTL   MOSUNNY   92  70  48 N5        29.89F HX  97
WICHITA JABRA  MOSUNNY   92  69  47 NE7       29.89F HX  97
WICHITA MCCONL SUNNY     91  67  46 NE13      29.89F
WINFIELD       SUNNY     94  65  38 NE12      29.88F HX  96
$$

KSZ007>012-019>026-033>040-048>060-102>105-240000-
NORTHEAST KANSAS

CITY           SKY/WX    TMP DP  RH WIND       PRES   REMARKS
CONCORDIA      SUNNY     94  65  38 N10       29.92F HX  96
EMPORIA        CLOUDY    91  71  51 NE6       29.90F HX  97
LAWRENCE       SUNNY     92  75  57 CALM      29.88F HX 103
MANHATTAN      SUNNY     96  66  37 E6        29.88F HX  99
OLATHE IND     SUNNY     90  74  59 VRB3      29.90F HX  99
OLATHE EXE     SUNNY     90  72  55 VRB3      29.90F HX  97
SALINA         MOSUNNY   97  61  30 NE10      29.90F HX  97
TOPEKA BILLARD SUNNY     92  72  51 E3        29.88F HX  99
TOPEKA FORBES  MOSUNNY   92  72  51 E3        29.90F HX  99
$$




USA.gov is the U.S. government's official web portal to all federal, state and local government web resources and services.